Location: General Nathan Twining Observatory
(34.5931°N, 106.8201°W)
Time: 01:48:35
(UTC-06:00)

ADEOS II - Visible Passes

Search period start: 19 September 2014 00:00
Search period end: 29 September 2014 00:00
Orbit: 801 x 803 km, 98.3° (Epoch: 18 September)

Date Brightness Start Highest point End Pass type
(mag) Time Alt. Az. Time Alt. Az. Time Alt. Az.
20 Sep 5.3 19:50:35 10° WSW 19:53:12 14° W 19:55:49 10° WNW visible
21 Sep 4.4 06:26:26 10° NE 06:31:03 30° E 06:35:37 10° SSE visible
22 Sep 5.1 06:01:33 10° NE 06:04:53 17° E 06:08:11 10° SE visible
24 Sep 5.3 19:46:03 10° SW 19:49:00 15° W 19:51:57 10° WNW visible
25 Sep 4.5 06:22:22 10° NE 06:26:52 28° E 06:31:19 10° SSE visible
25 Sep 4.6 19:18:24 10° SSW 19:22:49 28° W 19:27:16 10° NW visible
26 Sep 5.2 05:57:38 10° ENE 06:00:41 15° E 06:03:42 10° SE visible
28 Sep 5.2 19:41:33 10° SW 19:44:47 16° W 19:48:02 10° NW visible
